CST,Max TemperatureF,Mean TemperatureF,Min TemperatureF,Max Dew PointF,MeanDew PointF,Min DewpointF,Max Humidity, Mean Humidity, Min Humidity, Max Sea Level PressureIn, Mean Sea Level PressureIn, Min Sea Level PressureIn, Max VisibilityMiles, Mean VisibilityMiles, Min VisibilityMiles, Max Wind SpeedMPH, Mean Wind SpeedMPH, Max Gust SpeedMPH,PrecipitationIn, CloudCover, Events, WindDirDegrees
2013-12-1,39,29,18,25,23,18,92,73,54,30.22,30.09,29.88,10,10,9,9,4,11,0.00,4,,116
2013-12-2,55,42,28,33,29,24,92,69,45,29.85,29.62,29.52,10,9,5,14,7,19,T,2,Rain,136
2013-12-3,44,36,28,34,30,28,93,82,61,29.75,29.65,29.54,10,9,5,18,11,22,0.00,6,,359
2013-12-4,31,22,13,27,14,5,96,85,73,30.07,29.78,29.66,10,8,2,32,21,41,T,8,Rain-Snow,316
2013-12-5,14,8,2,3,-2,-6,76,67,58,30.52,30.35,30.12,10,10,10,28,17,37,T,2,,312
2013-12-6,7,1,-6,-6,-9,-11,82,69,55,30.79,30.67,30.51,10,10,10,22,13,27,0.00,0,,323
2013-12-7,9,0,-9,4,-6,-13,83,69,55,30.85,30.72,30.51,10,9,3,16,6,20,T,2,Snow,30
2013-12-8,16,9,2,10,7,0,95,84,73,30.45,30.21,30.04,10,4,1,16,8,20,0.13,7,Snow,115
2013-12-9,19,8,-4,9,-3,-11,83,73,63,30.37,30.24,30.03,10,10,10,25,13,34,0.00,2,,261
2013-12-10,28,19,9,25,13,1,81,69,56,30.35,30.15,29.97,10,9,2,31,13,40,T,5,Snow,289
2013-12-11,20,8,-4,15,-1,-9,84,71,58,30.71,30.57,30.32,10,10,10,30,12,36,T,1,,290
2013-12-12,32,18,3,22,11,0,92,78,63,30.45,30.29,30.10,10,10,10,15,7,18,0.00,0,,128
2013-12-13,26,18,9,19,15,7,92,83,73,30.22,30.08,30.01,10,10,9,18,9,25,0.00,4,,52
2013-12-14,18,13,7,13,10,5,92,83,73,30.30,30.24,30.17,10,8,2,18,10,22,0.03,6,Snow,341
2013-12-15,21,16,10,14,11,7,92,80,68,30.21,30.11,30.04,10,10,10,13,7,15,0.00,7,,104
2013-12-16,36,21,6,29,16,3,92,79,66,30.17,30.08,29.96,10,10,10,29,8,33,0.00,4,,185
2013-12-17,37,27,17,27,20,13,92,68,44,30.29,30.21,30.10,10,10,10,25,11,32,0.00,1,,310
2013-12-18,50,35,20,30,23,14,92,69,46,30.04,29.82,29.73,10,10,10,17,7,21,0.00,0,,150
2013-12-19,35,25,14,27,16,10,96,84,71,30.04,29.93,29.79,10,10,7,21,13,25,T,4,,12
2013-12-20,17,15,12,9,8,7,84,76,63,30.06,30.00,29.88,10,9,2,22,11,25,T,8,Snow,326
2013-12-21,26,18,10,17,12,6,84,72,60,29.98,29.92,29.87,10,10,10,21,7,24,0.00,4,,60
2013-12-22,18,10,2,13,3,-4,80,69,58,30.48,30.20,29.99,10,10,4,23,17,28,T,3,Snow,327
2013-12-23,7,-1,-10,-5,-13,-17,79,60,41,30.68,30.62,30.50,10,10,10,23,12,27,0.00,0,,317
2013-12-24,24,7,-11,18,5,-18,84,74,64,30.59,30.29,30.11,10,10,4,26,14,33,T,7,,161
2013-12-25,39,27,15,30,20,13,92,72,51,30.33,30.24,30.18,10,10,9,30,10,37,0.00,4,,271
2013-12-26,50,32,13,23,19,11,92,62,31,30.27,30.18,30.11,10,10,10,15,7,17,0.00,2,,319
2013-12-27,59,37,14,29,21,11,92,61,30,30.26,30.14,30.04,10,10,10,18,7,23,0.00,0,,152
2013-12-28,62,35,8,30,19,-1,88,55,22,30.23,29.92,29.71,10,10,9,49,19,61,T,2,Snow,127
2013-12-29,10,3,-4,0,-11,-16,76,54,32,30.51,30.39,30.23,10,10,8,41,16,48,T,2,Snow,333
2013-12-30,28,15,1,21,5,-12,83,66,49,30.35,30.18,30.02,10,8,1,28,12,34,0.02,7,Snow,184
2013-12-31,17,12,6,9,4,0,84,73,59,30.32,30.26,30.11,10,10,6,18,9,22,T,7,Snow,72